Wind_Speed
9 14 16 15 15 17 18 19 20 20 22 24 23 22 23 24 25 25 24 24 24 24 23 22 21 21 20 20 19 18 18 18 18 18 17 16 15 14 14 14 15 14 13 11 11 11 11 10 10 10 9 9 8 8 8 8 7 6 6 7 7 6 7
6 10 13 13 13 15 17 19 20 22 23 23 22 23 22 22 24 25 24 24 24 24 24 22 21 21 20 20 19 18 17 17 17 18 18 17 16 16 15 15 15 15 14 12 11 11 12 12 12 11 10 9 9 9 9 9 8 8 7 7 7 7 7
5 6 9 9 11 15 17 18 21 23 23 22 23 24 22 22 25 25 24 25 25 24 24 23 22 22 21 20 19 18 17 17 17 18 18 17 17 15 15 15 15 15 15 13 12 11 12 12 12 12 11 10 10 10 10 9 9 9 9 8 7 7 7
5 4 5 6 8 11 12 15 19 21 22 23 23 22 20 23 26 24 22 23 24 24 24 23 23 23 22 22 20 19 17 17 16 17 17 17 17 16 16 16 16 15 15 15 14 12 12 12 13 13 13 12 12 11 11 11 10 10 9 9 8 7 7
8 7 5 5 7 7 3 8 14 18 21 22 22 20 19 20 24 25 23 22 23 25 24 23 23 23 23 23 22 20 18 17 17 17 17 17 17 17 17 16 16 16 16 15 15 14 14 13 13 14 14 14 13 13 12 12 12 11 10 10 9 8 7
12 13 10 7 7 9 9 3 6 13 20 22 22 21 19 18 21 24 23 22 24 24 22 23 23 23 23 23 21 20 19 19 18 17 17 18 18 18 18 18 17 17 17 16 15 15 16 16 15 14 14 14 13 13 13 13 12 12 11 11 10 9 8
14 14 14 12 9 9 11 10 7 4 14 19 20 20 22 22 22 22 22 22 23 23 23 23 22 22 22 21 19 20 20 20 19 19 18 18 19 19 19 19 19 18 17 18 17 16 16 17 18 16 15 14 14 13 13 14 13 13 12 12 11 11 10
15 14 14 12 10 8 10 11 12 11 6 6 8 15 22 24 22 21 24 24 21 22 23 21 19 18 19 18 17 18 19 19 19 20 20 19 19 19 19 20 20 20 19 18 19 18 17 17 18 18 17 16 15 15 14 15 15 14 13 13 13 12 11
15 15 14 13 10 9 9 10 13 14 14 12 10 12 18 20 19 20 24 23 20 20 19 18 17 17 18 18 17 18 19 19 19 19 20 20 20 20 20 20 20 21 21 20 19 19 19 18 18 18 19 19 17 17 16 16 17 16 14 14 14 14 13
15 16 16 15 14 12 12 13 14 14 15 16 14 13 13 11 13 17 20 20 19 19 18 17 16 16 18 18 17 19 20 19 18 19 20 21 21 20 20 20 20 21 21 21 20 20 20 20 19 19 20 21 20 19 18 18 18 17 16 16 15 15 15
14 15 17 17 17 17 17 17 16 16 15 16 16 16 16 13 7 6 12 18 19 17 17 17 14 14 16 16 16 18 20 20 19 19 21 22 21 21 21 21 20 21 21 21 21 20 20 21 21 21 22 23 23 22 22 21 20 19 18 16 16 16 16
14 16 17 18 19 20 21 19 18 17 15 13 14 16 16 14 11 9 9 14 16 14 13 14 13 13 14 14 15 17 18 18 19 19 21 23 22 22 21 22 21 21 21 21 21 22 21 21 22 23 24 25 24 24 24 23 22 22 21 18 17 16 16
15 16 16 17 18 20 21 21 20 19 17 14 12 11 11 11 11 11 10 10 12 11 10 9 10 13 13 13 15 16 17 18 19 20 21 22 23 22 22 22 22 22 22 21 21 22 22 22 22 23 25 27 26 25 24 25 25 24 24 22 20 18 17
15 16 17 17 18 19 20 20 20 19 18 17 13 9 8 8 9 10 10 9 10 11 11 10 10 11 12 15 16 16 17 18 19 20 21 22 22 22 22 22 22 22 22 22 22 22 22 23 23 23 24 26 27 26 25 25 26 25 26 25 23 21 19
15 15 16 17 18 18 18 18 19 18 17 17 15 13 9 6 6 5 6 8 9 10 12 14 14 12 11 13 16 17 17 17 17 18 19 21 22 22 22 23 23 23 23 23 23 23 23 23 23 23 24 24 25 26 26 25 26 26 27 27 26 24 22
14 15 16 16 16 16 16 17 17 17 17 16 16 15 13 10 7 4 2 2 5 8 10 12 14 14 13 12 13 16 17 17 18 18 18 18 20 23 23 23 23 24 25 24 24 24 23 23 23 23 23 23 24 25 25 25 25 27 28 28 27 26 24
14 14 14 15 15 15 15 16 17 17 17 16 16 15 14 13 11 8 5 2 2 5 7 8 8 8 11 13 13 14 15 17 19 19 18 18 18 20 23 23 23 24 26 26 26 25 25 25 24 24 23 23 24 24 25 25 25 27 29 30 29 28 26
13 13 13 14 14 15 15 15 17 17 17 17 16 15 14 14 12 10 9 6 2 2 5 7 5 3 5 9 12 14 15 17 19 20 20 20 20 20 22 22 21 23 24 26 26 26 26 26 26 26 25 24 24 24 25 26 26 27 30 31 32 30 28
11 12 12 12 13 14 14 15 15 16 17 17 16 16 15 14 13 12 12 10 8 4 2 4 7 7 5 5 10 14 15 15 15 17 20 22 22 22 22 22 22 23 23 24 25 26 27 27 27 27 27 26 26 25 25 25 26 28 30 33 34 33 31
10 10 11 11 12 13 13 13 14 15 15 15 15 15 15 14 14 13 12 12 12 10 6 2 5 7 7 8 10 12 15 15 14 15 16 19 21 21 21 22 24 25 24 23 22 23 25 26 26 27 28 28 28 28 27 26 26 28 30 33 35 35 34
9 9 9 10 11 11 12 12 13 15 15 15 15 15 14 14 14 14 13 12 12 12 9 6 4 4 7 9 8 8 11 14 16 16 14 15 17 19 20 21 22 24 25 24 21 20 23 25 25 25 26 27 28 29 29 29 29 30 31 32 34 36 36
8 8 8 9 10 10 10 10 12 14 14 14 15 15 15 15 14 14 14 13 13 12 11 11 10 9 8 7 7 8 10 12 14 16 16 15 16 17 17 19 20 20 21 23 23 22 22 22 22 22 23 25 26 28 29 30 30 32 33 34 35 36 36
6 6 7 8 8 9 9 9 11 13 13 13 13 13 15 16 16 16 15 15 14 14 13 12 12 12 12 9 8 9 11 11 11 13 15 17 18 18 16 16 18 19 20 22 24 25 24 22 21 21 22 23 26 28 29 30 30 32 34 36 36 36 36
5 5 6 7 8 8 8 9 13 14 12 12 11 12 15 17 17 17 16 16 16 16 15 13 12 13 14 12 11 13 13 11 11 11 11 14 16 16 16 17 17 19 20 21 23 25 26 25 25 25 24 25 27 28 29 30 31 32 35 36 36 36 36
4 5 6 6 7 8 8 12 14 13 12 11 12 13 15 16 17 16 16 17 17 16 15 13 13 15 15 14 13 13 13 13 13 14 12 11 11 11 14 17 17 17 18 19 21 24 25 24 25 27 27 27 27 27 28 29 30 31 33 35 35 35 35
7 7 8 8 9 9 10 12 12 11 11 12 13 15 16 15 15 17 18 19 18 16 14 14 16 19 18 17 15 14 12 12 14 16 14 11 10 10 10 13 15 17 19 21 23 25 26 24 25 28 30 31 29 28 28 29 29 30 31 33 35 34 33
6 8 9 11 13 15 14 13 11 11 12 13 14 15 15 14 14 16 19 22 22 20 18 18 20 22 22 20 19 17 16 15 15 14 12 9 8 8 8 9 11 15 19 22 23 26 28 28 27 27 29 31 32 31 30 29 29 29 30 32 33 34 33
5 6 8 10 12 14 15 15 15 15 14 14 14 14 14 14 15 17 20 24 25 24 23 23 23 23 23 23 22 21 20 19 17 16 14 12 11 11 10 8 9 12 16 19 21 25 28 30 31 29 27 29 31 32 32 31 30 29 29 30 31 31 31
5 6 8 9 10 11 12 14 16 18 18 16 16 16 16 16 18 21 23 25 27 28 29 28 27 25 25 25 24 23 23 21 20 19 17 15 15 15 15 14 13 14 16 16 18 22 27 30 33 32 29 27 28 31 32 32 31 30 29 29 30 30 31
5 6 8 9 10 11 12 13 15 17 18 18 17 18 18 19 21 24 27 27 28 29 30 31 31 30 28 27 26 25 24 23 23 22 21 19 18 18 19 19 18 17 17 18 19 20 24 27 31 33 32 29 27 29 30 29 29 29 29 29 29 30 31
8 8 8 8 9 10 12 13 15 17 18 19 19 18 19 20 21 24 26 27 28 29 31 33 34 34 33 31 30 28 27 25 25 24 23 22 21 20 21 22 22 21 20 21 21 20 22 23 25 29 32 31 30 29 27 25 25 24 24 27 28 27 28
10 9 9 9 9 10 12 13 15 16 18 19 19 18 18 19 20 22 25 28 30 31 32 33 34 35 36 35 34 32 31 29 28 26 25 24 24 24 25 25 25 24 23 22 21 21 22 23 22 23 25 29 32 31 27 23 22 22 23 27 29 29 28
11 12 12 12 12 12 12 13 14 15 17 18 19 18 18 19 20 22 25 27 28 30 31 32 34 35 37 37 36 33 30 28 27 26 26 25 25 24 23 21 20 20 20 19 19 20 20 21 21 21 22 25 30 32 29 24 22 23 25 26 28 30 31
12 13 15 15 16 16 15 14 14 14 16 18 19 20 20 21 21 22 23 25 26 27 29 32 34 36 37 37 35 32 27 24 22 22 23 23 22 21 19 18 17 17 17 16 16 17 17 18 19 20 21 22 26 29 30 28 25 25 26 26 26 28 29
13 14 16 17 18 18 17 17 17 17 17 18 18 20 21 22 22 21 22 24 25 25 26 28 30 34 36 36 35 32 28 24 22 20 20 21 20 19 19 20 22 23 24 24 23 22 22 23 23 23 22 21 23 26 29 31 29 27 28 28 28 27 25
14 15 16 17 18 19 19 20 20 19 19 19 18 19 20 22 23 22 22 23 23 24 24 24 25 28 32 34 34 31 26 23 22 21 20 20 19 20 23 27 30 32 33 34 33 32 31 30 30 29 27 26 26 26 28 31 31 30 30 30 29 28 25
14 16 17 18 19 20 21 21 22 22 22 21 20 20 20 20 21 21 21 22 22 23 24 24 25 26 27 29 30 29 27 26 25 25 25 24 24 25 29 33 35 37 38 38 38 36 35 33 32 31 30 29 29 27 28 29 31 33 35 33 31 29 27
16 17 18 19 19 20 21 22 22 23 23 22 21 21 21 21 21 20 20 21 21 22 24 25 26 27 26 26 26 27 27 27 26 25 26 27 26 26 27 30 34 37 37 37 36 37 36 35 34 33 32 32 31 30 28 27 28 31 35 38 38 35 33
Wind_Direction
148 166 175 181 183 190 192 191 195 196 195 191 190 196 195 192 194 194 198 204 201 197 197 198 197 198 199 201 204 208 208 209 209 208 207 205 203 200 201 205 204 202 202 205 206 204 201 197 196 203 209 203 201 208 210 208 206 203 203 194 189 203 192
110 144 166 179 183 190 196 198 200 200 197 194 194 199 197 194 195 194 196 204 204 200 199 199 198 200 200 200 202 205 206 208 211 211 208 208 208 203 200 204 206 207 205 201 205 207 204 203 203 206 210 207 206 211 210 209 209 204 210 213 203 207 200
60 113 150 175 186 192 200 204 207 205 201 199 199 201 203 200 198 195 195 203 206 203 202 200 201 204 203 200 202 203 203 205 209 211 208 208 209 205 203 206 206 208 209 203 202 205 204 207 208 207 208 206 208 216 216 213 213 211 212 217 211 213 213
51 76 123 153 166 176 195 209 209 201 199 203 201 200 206 208 204 198 196 204 209 206 204 202 203 207 207 203 204 205 204 204 207 210 207 205 208 206 204 208 207 207 210 209 206 204 204 208 210 211 210 206 206 214 220 216 214 216 216 218 216 216 223
55 55 80 128 127 111 126 206 202 194 194 199 202 203 207 210 209 206 200 203 210 210 205 202 205 208 208 205 204 205 206 207 207 207 205 201 205 206 204 206 209 208 209 210 210 209 207 206 210 216 216 212 209 212 219 220 216 218 219 216 218 220 227
44 43 46 64 90 72 46 62 186 199 199 196 199 205 207 208 211 214 211 208 213 214 203 200 206 207 207 206 202 203 208 209 208 207 206 202 202 204 204 205 207 208 209 209 210 213 213 210 207 212 217 216 215 214 220 223 219 220 223 218 216 219 220
44 44 42 45 63 63 47 52 71 174 207 203 201 204 207 210 212 217 218 211 212 212 200 199 204 202 205 206 200 202 206 208 209 208 207 205 203 204 205 205 206 207 209 211 211 212 215 217 213 211 212 214 215 215 218 224 221 218 224 225 221 220 215
52 52 52 51 56 56 53 59 66 75 111 169 188 201 208 209 207 211 215 210 210 210 200 197 200 200 206 206 201 206 208 207 210 211 209 206 204 205 204 206 207 206 206 209 212 212 212 217 218 215 214 213 214 215 215 222 225 219 220 227 228 226 221
59 59 60 62 65 63 62 60 65 79 91 96 118 173 194 199 200 207 213 208 203 203 198 193 193 201 210 208 204 210 211 208 210 212 210 207 206 207 206 207 208 207 208 208 211 214 213 213 215 217 219 217 215 216 215 220 227 223 217 222 228 229 224
59 59 58 61 61 58 58 60 69 85 98 102 116 143 154 167 194 211 214 207 199 198 197 190 190 203 213 209 209 216 216 214 213 214 214 210 208 209 207 208 209 209 211 209 209 214 215 214 213 214 220 222 219 218 217 218 224 225 221 221 227 231 228
63 59 55 55 55 54 54 59 68 75 81 90 106 127 132 128 135 181 197 199 203 204 194 184 187 207 214 208 210 219 220 218 217 217 218 214 211 211 209 208 209 210 212 211 210 212 215 217 217 214 217 222 222 221 222 222 224 227 226 223 227 232 232
69 61 55 51 50 55 61 62 64 65 66 74 93 116 130 130 118 109 137 171 190 196 186 184 193 204 207 207 215 221 219 218 221 223 223 218 212 212 212 210 210 211 212 212 211 211 213 216 219 219 221 225 225 224 226 227 227 230 230 225 225 231 233
73 66 60 54 48 51 59 64 64 64 62 61 71 98 117 123 125 119 115 137 165 172 169 180 196 204 212 216 218 219 217 218 220 220 224 222 215 214 215 214 213 212 212 213 213 213 213 214 218 223 226 230 231 228 228 230 231 232 233 230 224 225 231
78 70 64 60 53 47 49 56 62 62 62 62 63 78 102 114 118 118 117 132 161 177 182 188 192 201 216 220 216 214 217 223 224 221 222 223 219 217 217 216 216 216 214 214 214 214 215 215 216 221 227 231 234 232 229 231 233 233 234 234 230 225 226
77 71 64 59 55 51 46 47 54 59 64 68 68 68 78 102 116 114 118 134 153 175 195 205 205 202 209 222 226 222 219 222 225 225 225 223 221 220 219 218 218 218 217 216 216 216 217 217 217 219 222 226 232 234 231 229 232 234 234 235 234 230 226
74 69 64 57 54 53 50 46 46 51 57 61 64 65 65 71 79 85 88 147 167 179 194 202 204 206 208 215 228 232 229 225 223 223 221 220 223 223 221 220 220 219 218 218 218 218 217 217 218 220 222 223 226 230 230 228 229 233 236 236 236 234 231
72 67 61 56 52 48 48 45 41 40 42 44 49 54 57 58 59 62 61 51 209 218 225 209 192 207 221 219 222 231 237 237 235 231 223 218 223 227 226 223 221 221 221 220 220 219 218 218 219 220 222 224 225 226 228 228 229 233 239 241 239 237 235
69 64 58 52 46 43 41 39 34 31 31 32 37 42 45 45 46 49 51 45 46 238 248 235 210 213 236 234 235 235 233 233 235 236 233 228 226 230 232 231 227 225 224 224 223 221 221 222 222 222 223 225 227 228 229 230 231 234 239 244 243 241 238
66 61 57 48 43 39 36 34 30 25 25 25 26 31 33 32 34 36 34 29 25 17 303 235 219 216 222 238 244 242 237 236 235 234 236 238 235 234 235 236 238 238 232 228 226 225 225 225 226 227 228 227 229 230 231 233 234 236 239 244 246 245 242
59 56 52 45 41 36 30 30 25 19 22 21 18 20 23 22 25 23 21 22 19 11 4 310 224 224 235 245 250 249 245 245 245 241 240 241 243 245 243 239 242 247 247 240 233 229 229 228 228 230 232 232 232 231 232 233 234 237 241 245 248 248 245
52 50 46 38 35 29 25 25 18 13 16 16 10 9 9 11 16 15 11 14 11 5 6 2 328 282 267 265 273 278 264 253 250 250 253 252 250 253 255 250 246 249 253 255 251 244 239 233 229 230 233 235 236 234 235 235 233 234 238 242 247 249 248
53 44 37 31 26 21 19 18 11 7 8 8 5 358 353 357 3 4 5 6 1 358 4 7 355 334 317 299 284 280 277 270 262 258 260 262 258 257 259 258 256 255 256 258 259 258 253 243 235 234 236 237 238 237 237 237 236 236 237 240 243 246 248
62 43 31 26 16 10 11 5 360 359 358 1 1 349 342 346 350 350 352 354 354 352 357 5 359 340 331 325 313 305 296 288 288 285 271 260 258 261 264 264 263 259 253 251 253 255 252 245 239 239 239 239 239 239 238 238 237 238 240 242 243 244 247
57 37 25 14 2 1 358 346 345 349 351 353 350 338 334 337 338 339 341 342 344 348 351 354 348 334 329 326 323 329 329 319 323 327 301 271 264 264 262 261 261 257 252 249 250 250 248 244 241 238 235 233 235 238 240 239 238 239 241 243 244 246 247
18 14 8 358 355 353 343 337 340 345 345 341 335 329 331 333 329 326 327 328 333 342 345 342 332 324 325 325 316 318 327 331 339 342 326 300 294 287 269 260 257 257 258 257 254 253 252 250 247 243 238 236 236 237 240 242 241 241 243 244 245 246 247
354 348 345 346 340 332 333 338 337 335 333 329 325 325 328 327 324 319 315 315 321 329 332 328 322 319 321 322 317 311 311 313 323 333 329 314 310 312 293 269 259 258 259 256 252 250 249 248 248 245 242 241 239 237 239 244 245 244 244 246 246 245 245
346 336 336 334 321 315 321 330 328 326 326 322 321 325 325 321 317 314 309 308 310 315 317 314 314 315 316 316 315 314 312 308 309 317 320 306 293 290 283 274 271 268 264 262 257 250 245 243 244 246 245 243 241 238 236 239 243 246 248 249 250 250 248
340 330 328 328 321 317 320 320 315 313 314 317 319 320 316 312 310 306 304 305 306 306 306 304 305 307 309 310 312 313 312 310 307 307 308 303 290 278 267 264 274 276 271 271 270 263 254 247 243 244 246 246 245 242 238 235 236 241 247 252 255 257 255
339 326 322 323 323 323 321 315 308 302 300 306 311 311 309 307 303 299 298 301 302 302 301 300 299 299 301 303 305 308 310 311 309 306 307 305 298 288 279 272 273 275 272 271 273 270 266 259 251 246 247 248 248 246 244 241 238 238 242 249 254 257 259
324 319 319 318 316 318 318 315 311 304 299 298 300 302 304 302 298 296 296 297 299 300 300 299 297 296 296 297 298 300 303 305 304 303 302 300 296 293 288 283 283 281 276 277 278 273 269 266 259 254 251 249 248 249 248 247 247 246 245 246 251 256 260
311 311 312 310 311 314 313 311 309 306 302 297 295 295 297 298 298 296 294 293 293 294 296 298 298 297 295 295 294 295 295 296 297 298 299 297 293 289 285 286 288 287 281 280 281 279 275 273 269 265 260 253 251 253 253 249 247 249 248 248 250 253 259
306 307 308 307 308 308 307 305 303 301 299 296 295 295 295 295 296 293 289 288 289 291 293 295 296 296 295 295 295 296 296 295 294 293 292 292 291 289 288 288 290 291 288 283 279 279 279 279 277 276 271 262 257 260 263 261 256 255 256 255 253 252 254
304 307 307 307 307 306 305 302 298 297 296 295 295 296 293 290 289 289 289 289 289 290 290 290 291 292 293 294 296 298 299 298 297 294 292 290 290 291 290 288 286 285 286 283 279 279 281 281 280 280 277 269 262 259 260 261 259 255 255 256 256 256 255
303 305 305 306 307 307 305 301 296 294 293 293 294 293 290 287 285 285 288 290 292 292 290 288 287 288 289 291 293 293 293 291 290 289 287 286 285 282 279 276 271 269 270 270 272 276 278 277 274 274 274 273 267 261 259 260 257 252 252 254 256 258 258
298 300 302 303 304 304 303 301 298 295 291 290 290 290 288 286 284 282 284 286 290 293 293 290 288 287 286 287 289 289 288 286 283 282 281 280 278 274 270 269 269 269 268 266 265 265 265 262 260 261 265 270 267 262 263 265 263 256 253 252 252 254 256
293 296 298 299 300 300 300 298 297 296 293 290 288 287 287 287 286 286 286 286 288 289 290 290 289 286 285 285 285 285 284 282 279 278 276 273 270 268 270 274 276 277 277 277 275 274 273 271 269 268 267 267 266 263 263 265 266 262 258 254 250 250 251
291 293 295 297 297 297 296 296 296 295 293 292 290 287 286 286 286 287 287 288 287 287 287 287 286 285 284 283 282 281 280 279 278 277 275 273 271 272 276 279 280 280 281 282 283 283 282 281 279 276 272 267 265 263 261 261 261 261 261 259 256 252 248
290 291 292 293 294 294 294 294 294 293 293 292 291 289 287 286 285 285 285 285 285 284 283 282 281 281 280 280 279 278 277 277 276 276 275 275 275 275 277 280 281 282 283 284 286 287 287 286 284 282 277 272 268 265 264 264 263 263 263 262 261 258 252
Height
1514 1516 1519 1521 1523 1525 1528 1530 1532 1533 1535 1536 1539 1542 1544 1547 1549 1551 1553 1556 1558 1559 1561 1563 1565 1567 1569 1571 1572 1574 1575 1577 1579 1580 1582 1584 1585 1587 1589 1590 1591 1592 1594 1595 1596 1596 1597 1598 1599 1600 1600 1601 1602 1603 1603 1604 1604 1605 1606 1606 1607 1607 1608
1514 1517 1519 1521 1522 1524 1526 1528 1530 1532 1534 1535 1538 1541 1544 1546 1548 1549 1551 1554 1557 1558 1560 1561 1564 1566 1568 1570 1571 1573 1574 1576 1577 1579 1581 1582 1584 1585 1587 1589 1590 1591 1592 1594 1595 1596 1596 1597 1598 1599 1599 1600 1601 1602 1603 1603 1604 1604 1605 1605 1606 1607 1607
1517 1518 1520 1521 1521 1522 1524 1525 1528 1532 1535 1535 1536 1539 1543 1545 1547 1548 1550 1552 1554 1557 1558 1560 1562 1564 1566 1568 1570 1571 1573 1574 1576 1577 1579 1581 1582 1584 1586 1587 1589 1590 1591 1593 1594 1595 1595 1596 1597 1598 1599 1599 1600 1601 1602 1603 1603 1604 1604 1605 1605 1606 1607
1522 1521 1520 1522 1521 1523 1525 1525 1528 1532 1535 1535 1535 1538 1542 1544 1546 1548 1549 1551 1553 1554 1556 1558 1561 1563 1565 1567 1568 1570 1571 1573 1574 1576 1578 1580 1581 1583 1585 1586 1587 1589 1591 1591 1593 1594 1595 1595 1596 1596 1597 1598 1599 1600 1601 1602 1602 1603 1603 1604 1605 1605 1606
1525 1523 1522 1522 1522 1524 1526 1526 1528 1530 1532 1534 1534 1538 1541 1543 1546 1547 1548 1550 1552 1553 1554 1557 1560 1561 1563 1565 1566 1568 1569 1571 1573 1574 1576 1578 1580 1581 1583 1584 1586 1587 1589 1590 1591 1592 1593 1594 1595 1596 1596 1597 1598 1599 1600 1601 1601 1602 1603 1603 1605 1605 1606
1525 1524 1523 1523 1523 1525 1526 1526 1526 1526 1529 1531 1533 1536 1540 1543 1545 1547 1548 1550 1552 1553 1555 1557 1559 1559 1561 1562 1563 1565 1567 1569 1570 1572 1574 1576 1577 1579 1581 1583 1584 1586 1587 1589 1590 1591 1591 1593 1594 1595 1595 1596 1597 1598 1599 1600 1601 1602 1602 1602 1604 1604 1605
1526 1525 1525 1525 1525 1526 1527 1527 1526 1525 1526 1529 1532 1535 1537 1540 1543 1546 1549 1550 1550 1552 1553 1555 1556 1557 1559 1560 1562 1564 1565 1566 1568 1570 1572 1573 1575 1577 1578 1580 1582 1584 1585 1587 1588 1589 1590 1591 1592 1593 1594 1595 1597 1598 1598 1599 1600 1601 1601 1602 1602 1603 1604
1528 1528 1527 1528 1529 1530 1530 1530 1529 1527 1527 1530 1532 1533 1536 1539 1541 1544 1548 1549 1549 1550 1550 1551 1553 1556 1558 1560 1561 1563 1564 1565 1567 1568 1570 1572 1573 1574 1576 1578 1579 1581 1583 1584 1586 1587 1588 1590 1590 1591 1593 1594 1595 1596 1597 1598 1598 1599 1600 1601 1601 1602 1603
1531 1531 1531 1532 1532 1533 1534 1533 1532 1530 1530 1530 1530 1532 1535 1539 1541 1543 1546 1547 1548 1548 1548 1549 1551 1554 1557 1558 1560 1561 1562 1564 1565 1566 1568 1570 1571 1573 1574 1576 1577 1578 1580 1582 1584 1585 1586 1588 1589 1590 1590 1591 1593 1594 1595 1596 1596 1598 1599 1600 1600 1601 1602
1532 1533 1533 1533 1534 1535 1534 1533 1531 1530 1531 1531 1532 1532 1534 1537 1541 1544 1545 1546 1547 1548 1548 1548 1550 1553 1555 1556 1557 1559 1560 1561 1563 1565 1567 1568 1570 1571 1572 1574 1575 1576 1577 1579 1581 1583 1584 1585 1587 1588 1588 1589 1590 1592 1593 1594 1595 1596 1597 1598 1599 1600 1601
1533 1534 1533 1533 1534 1533 1532 1531 1530 1531 1531 1532 1534 1535 1537 1539 1542 1543 1544 1545 1547 1548 1548 1548 1549 1551 1552 1554 1555 1556 1558 1559 1561 1563 1564 1566 1568 1569 1570 1572 1573 1574 1575 1577 1579 1581 1582 1582 1584 1585 1586 1586 1588 1589 1590 1591 1592 1594 1595 1596 1598 1598 1599
1535 1534 1534 1534 1533 1533 1532 1532 1532 1532 1532 1533 1534 1535 1538 1539 1540 1541 1543 1545 1546 1546 1547 1548 1549 1550 1550 1552 1554 1555 1556 1558 1560 1561 1562 1564 1565 1567 1568 1570 1571 1572 1573 1575 1576 1578 1580 1580 1581 1582 1583 1584 1585 1587 1588 1589 1590 1591 1592 1594 1596 1597 1598
1535 1535 1535 1535 1534 1534 1534 1533 1533 1533 1533 1534 1534 1534 1535 1536 1536 1537 1540 1543 1544 1544 1544 1545 1548 1549 1549 1551 1552 1554 1555 1557 1559 1559 1560 1562 1563 1565 1566 1567 1569 1570 1571 1573 1574 1575 1577 1578 1579 1579 1580 1582 1583 1584 1586 1587 1588 1589 1590 1592 1593 1595 1596
1535 1536 1536 1537 1536 1536 1535 1534 1534 1534 1535 1535 1535 1535 1535 1535 1535 1535 1536 1539 1541 1542 1542 1543 1544 1546 1548 1549 1551 1552 1554 1556 1557 1557 1558 1559 1561 1563 1564 1565 1566 1568 1569 1570 1571 1573 1574 1576 1577 1577 1578 1579 1580 1582 1583 1584 1585 1586 1587 1588 1590 1592 1593
1536 1536 1537 1538 1538 1538 1538 1537 1536 1535 1536 1535 1535 1535 1535 1535 1535 1535 1536 1537 1539 1540 1541 1542 1543 1544 1546 1548 1550 1551 1552 1553 1555 1556 1556 1558 1559 1560 1561 1562 1564 1565 1567 1568 1569 1570 1572 1573 1575 1575 1576 1577 1578 1579 1581 1582 1582 1583 1584 1586 1587 1589 1591
1537 1538 1539 1539 1540 1540 1540 1540 1539 1538 1537 1536 1536 1536 1535 1535 1535 1535 1537 1538 1538 1539 1540 1541 1543 1544 1545 1546 1548 1549 1550 1551 1552 1553 1554 1556 1557 1558 1558 1560 1561 1562 1564 1565 1567 1568 1569 1571 1573 1574 1574 1575 1576 1577 1578 1579 1580 1580 1581 1583 1584 1586 1588
1539 1540 1541 1541 1542 1542 1542 1542 1541 1540 1539 1538 1537 1537 1536 1536 1536 1536 1537 1537 1538 1539 1539 1540 1542 1544 1545 1546 1546 1547 1549 1549 1550 1550 1551 1553 1554 1556 1557 1558 1559 1560 1561 1563 1564 1565 1567 1568 1569 1571 1572 1573 1574 1575 1575 1576 1577 1578 1578 1580 1582 1583 1585
1541 1541 1542 1542 1543 1543 1542 1542 1542 1541 1540 1539 1538 1538 1538 1538 1538 1537 1537 1537 1538 1538 1539 1540 1541 1543 1544 1545 1545 1545 1545 1546 1547 1547 1548 1550 1551 1553 1554 1556 1557 1558 1560 1561 1562 1563 1564 1565 1566 1567 1569 1571 1572 1573 1573 1574 1575 1575 1576 1577 1578 1581 1582
1542 1543 1543 1544 1544 1543 1543 1543 1542 1541 1541 1540 1539 1539 1539 1539 1539 1539 1539 1539 1538 1538 1538 1539 1540 1541 1542 1543 1543 1543 1542 1543 1544 1545 1547 1548 1550 1551 1551 1553 1556 1557 1558 1560 1561 1562 1562 1562 1564 1565 1566 1567 1569 1570 1571 1571 1572 1573 1573 1574 1575 1577 1579
1543 1544 1544 1545 1545 1544 1544 1544 1543 1543 1541 1541 1540 1540 1539 1539 1539 1540 1540 1539 1539 1539 1539 1538 1539 1540 1540 1540 1541 1541 1542 1542 1543 1544 1545 1546 1548 1550 1550 1551 1553 1555 1558 1559 1560 1561 1561 1561 1561 1562 1563 1564 1565 1566 1567 1568 1569 1570 1570 1570 1571 1573 1575
1544 1545 1545 1545 1545 1545 1545 1545 1544 1543 1542 1542 1542 1541 1540 1540 1539 1540 1540 1540 1540 1540 1539 1539 1539 1539 1539 1539 1540 1540 1541 1541 1542 1543 1544 1544 1546 1548 1549 1551 1552 1553 1556 1558 1560 1561 1561 1560 1559 1559 1560 1560 1561 1563 1563 1564 1566 1566 1567 1567 1568 1569 1571
1545 1545 1546 1546 1546 1546 1546 1545 1545 1544 1543 1543 1543 1542 1541 1540 1540 1540 1540 1540 1540 1540 1540 1540 1539 1539 1539 1539 1539 1539 1539 1540 1541 1542 1542 1543 1545 1546 1547 1549 1550 1551 1553 1556 1558 1560 1559 1558 1557 1557 1557 1558 1558 1559 1559 1560 1561 1562 1563 1563 1564 1565 1567
1545 1546 1546 1546 1546 1546 1546 1545 1545 1545 1544 1544 1544 1543 1542 1541 1540 1540 1540 1540 1540 1539 1539 1540 1540 1539 1538 1538 1538 1539 1539 1540 1540 1541 1541 1542 1543 1544 1545 1546 1548 1548 1550 1551 1553 1555 1555 1554 1554 1553 1554 1555 1555 1555 1555 1556 1557 1558 1558 1559 1560 1562 1562
1546 1546 1546 1547 1546 1546 1546 1545 1544 1544 1544 1545 1545 1544 1542 1542 1541 1541 1541 1540 1540 1540 1540 1540 1540 1539 1539 1539 1539 1539 1540 1541 1541 1541 1540 1540 1541 1542 1543 1544 1545 1545 1546 1547 1548 1548 1549 1550 1550 1549 1549 1550 1551 1551 1551 1551 1552 1553 1554 1555 1556 1557 1558
1545 1546 1546 1547 1547 1546 1545 1544 1544 1544 1545 1545 1545 1543 1543 1542 1542 1541 1541 1541 1541 1541 1541 1541 1540 1539 1539 1539 1540 1540 1541 1541 1541 1540 1539 1538 1538 1539 1540 1541 1542 1543 1544 1544 1544 1544 1545 1546 1546 1546 1547 1547 1547 1548 1548 1548 1549 1549 1550 1551 1552 1553 1554
1544 1544 1545 1546 1546 1545 1545 1545 1545 1545 1545 1545 1544 1543 1543 1543 1542 1541 1541 1540 1541 1541 1541 1541 1539 1538 1539 1539 1539 1539 1540 1540 1540 1540 1539 1537 1536 1537 1538 1539 1540 1541 1541 1541 1540 1540 1540 1541 1541 1542 1543 1544 1544 1545 1546 1546 1546 1546 1546 1547 1548 1549 1550
1544 1543 1544 1544 1543 1542 1543 1544 1544 1544 1544 1544 1543 1543 1543 1542 1541 1540 1539 1539 1539 1540 1540 1539 1538 1538 1538 1538 1538 1538 1538 1539 1540 1540 1540 1540 1539 1539 1538 1538 1538 1538 1538 1538 1538 1538 1537 1537 1538 1538 1539 1539 1540 1540 1540 1542 1543 1544 1544 1544 1544 1545 1547
1544 1544 1544 1544 1543 1542 1542 1542 1542 1542 1542 1542 1542 1542 1542 1541 1540 1539 1538 1537 1537 1538 1538 1537 1537 1536 1536 1536 1537 1537 1537 1538 1538 1539 1540 1541 1540 1540 1539 1537 1536 1536 1536 1537 1536 1536 1535 1534 1534 1535 1535 1535 1535 1535 1536 1536 1538 1540 1541 1541 1541 1542 1543
1543 1544 1544 1544 1544 1544 1543 1542 1541 1540 1540 1541 1541 1541 1540 1540 1539 1537 1537 1536 1536 1535 1535 1535 1535 1535 1535 1535 1535 1536 1536 1536 1536 1537 1538 1539 1539 1538 1537 1536 1535 1535 1534 1534 1533 1533 1532 1531 1531 1531 1531 1531 1531 1532 1532 1533 1534 1536 1538 1538 1538 1539 1540
1543 1544 1544 1544 1544 1543 1542 1541 1540 1539 1539 1539 1539 1539 1538 1538 1536 1535 1535 1535 1534 1533 1532 1532 1532 1532 1532 1533 1533 1534 1534 1535 1535 1535 1535 1536 1536 1536 1534 1533 1533 1533 1533 1531 1530 1529 1528 1528 1528 1528 1527 1527 1528 1528 1530 1531 1532 1534 1535 1535 1536 1537 1537
1542 1543 1543 1544 1543 1542 1542 1541 1540 1539 1538 1537 1537 1537 1536 1536 1535 1534 1533 1533 1532 1532 1530 1529 1529 1529 1529 1530 1530 1531 1532 1532 1533 1533 1533 1533 1533 1533 1532 1531 1531 1531 1531 1529 1528 1527 1526 1526 1526 1525 1525 1525 1525 1526 1528 1528 1528 1530 1531 1532 1533 1534 1534
1540 1541 1541 1542 1542 1542 1541 1540 1539 1539 1537 1536 1536 1536 1535 1535 1534 1533 1531 1531 1530 1530 1529 1528 1527 1526 1526 1526 1526 1527 1528 1528 1529 1530 1530 1530 1530 1530 1529 1529 1528 1528 1527 1527 1526 1526 1525 1524 1523 1522 1522 1522 1523 1525 1526 1526 1527 1529 1531 1530 1530 1530 1530
1539 1539 1539 1539 1540 1540 1540 1539 1539 1538 1536 1535 1535 1534 1533 1533 1532 1531 1530 1529 1529 1528 1527 1526 1525 1524 1523 1523 1523 1524 1524 1525 1525 1526 1527 1527 1527 1527 1527 1527 1526 1526 1525 1524 1524 1524 1523 1522 1521 1520 1520 1520 1520 1522 1524 1524 1525 1526 1527 1528 1527 1526 1527
1537 1537 1537 1536 1536 1537 1537 1537 1537 1536 1536 1534 1533 1532 1531 1530 1530 1529 1528 1527 1527 1526 1525 1524 1523 1522 1521 1521 1521 1522 1522 1523 1523 1523 1523 1524 1525 1525 1525 1524 1524 1524 1523 1523 1523 1522 1521 1520 1518 1518 1517 1517 1517 1518 1519 1519 1520 1520 1522 1523 1523 1523 1523
1537 1536 1536 1535 1534 1534 1534 1534 1534 1534 1534 1533 1532 1531 1529 1528 1528 1527 1526 1526 1525 1524 1523 1522 1521 1520 1519 1519 1519 1519 1520 1520 1520 1520 1520 1520 1521 1521 1521 1520 1520 1519 1519 1519 1519 1519 1518 1517 1515 1515 1514 1514 1513 1514 1514 1514 1515 1516 1517 1517 1518 1519 1520
1536 1535 1535 1534 1533 1532 1531 1531 1530 1530 1530 1530 1530 1529 1528 1527 1526 1525 1524 1524 1523 1523 1522 1520 1519 1518 1517 1516 1516 1516 1517 1517 1517 1517 1517 1517 1517 1517 1516 1516 1515 1514 1513 1513 1513 1513 1514 1513 1512 1512 1512 1511 1510 1510 1510 1510 1512 1513 1513 1513 1513 1515 1516
1535 1535 1534 1533 1532 1531 1530 1529 1528 1527 1527 1527 1527 1526 1526 1525 1524 1524 1523 1522 1522 1521 1520 1519 1517 1516 1515 1514 1514 1513 1513 1513 1513 1513 1513 1512 1512 1511 1511 1510 1510 1509 1508 1508 1507 1507 1508 1508 1508 1508 1508 1507 1505 1505 1506 1507 1507 1509 1509 1510 1510 1511 1512
1534 1534 1533 1532 1531 1530 1528 1527 1526 1525 1524 1524 1523 1523 1523 1522 1522 1522 1522 1521 1520 1519 1518 1517 1515 1514 1513 1512 1512 1511 1510 1510 1509 1509 1509 1508 1508 1507 1507 1506 1505 1504 1504 1504 1503 1502 1502 1502 1502 1502 1503 1502 1501 1501 1501 1502 1503 1503 1504 1505 1506 1508 1508